Location: Aressy
(43.2833°N, 0.3167°W)
Time: 02:10:04
(UTC+00:00)

Meteor 2-14 Rocket - Pass Details

Date: 28 January 2021
Orbit: 938 x 955 km, 82.5° (Epoch: 08 March)

Event Time Altitude Azimuth Distance (km) Brightness Sun altitude
Rises 19:38:00 0° 191° (S) 3,586 7.6 -27.3°
Reaches altitude 10° 19:40:28 10° 192° (SSW) 2,647 6.9 -27.8°
Maximum altitude 19:46:31 78° 278° (W) 969 4.4 -28.9°
Drops below altitude 10° 19:52:39 10° 6° (N) 2,676 6.8 -30.0°
Sets 19:55:10 0° 8° (N) 3,627 7.5 -30.4°
